N2UGS-WX Weather Reports


Display with metric or nautical units.
time (UTC)temp
F
wind
direction
speed
MPH
gust
MPH
rain 1hr
in
rain 24hr
in
rain mn
in
humidity
%
barometer
mb
20260505192902 61 257 9.0 13.0 0.00 0.00 0.04 71 1006.4
20260505191503 63 201 9.0 15.0 0.00 0.00 0.04 66 1006.4
20260505190501 66 242 7.0 13.0 0.00 0.00 0.04 63 1006.4
20260505185402 68 303 8.0 15.0 0.00 0.00 0.04 60 1006.4
20260505184402 68 357 7.0 13.0 0.00 0.00 0.04 59 1006.1
20260505183003 69 238 13.0 14.0 0.00 0.00 0.04 59 1006.1
20260505181402 69 236 6.0 15.0 0.00 0.00 0.04 59 1005.8
20260505180002 65 263 5.0 15.0 0.00 0.00 0.04 63 1005.8
20260505174502 67 260 12.0 19.0 0.00 0.00 0.04 62 1005.8
20260505173002 66 310 14.0 18.0 0.01 0.00 0.04 63 1005.8
20260505171502 66 255 11.0 19.0 0.01 0.00 0.04 64 1005.8
20260505170003 67 210 8.0 14.0 0.01 0.00 0.04 60 1005.8
20260505164502 67 275 11.0 18.0 0.01 0.00 0.04 62 1005.4
20260505163003 67 286 13.0 22.0 0.00 0.00 0.03 62 1005.4
20260505162002 66 214 5.0 20.0 0.00 0.00 0.03 61 1004.7
20260505161002 64 226 9.0 15.0 0.00 0.00 0.03 66 1005.1
20260505152502 66 228 13.0 13.0 0.00 0.00 0.03 59 1004.4
20260505151002 65 232 14.0 16.0 0.00 0.00 0.03 62 1004.4
20260505124002 65 243 6.0 14.0 0.00 0.00 0.03 62 1003.0
20260505122502 67 266 16.0 16.0 0.00 0.00 0.03 60 1002.7
20260505121002 66 233 9.0 18.0 0.00 0.00 0.03 62 1002.7
20260505115502 65 242 15.0 17.0 0.00 0.00 0.03 64 1002.4
20260505114003 65 262 9.0 16.0 0.00 0.00 0.03 64 1002.4
20260505112502 65 251 12.0 21.0 0.00 0.00 0.03 64 1002.4
20260505111003 64 225 6.0 14.0 0.00 0.00 0.03 67 1002.0
20260505102003 62 230 9.0 11.0 0.01 0.00 0.03 72 1001.4
20260505101002 62 201 6.0 12.0 0.01 0.00 0.03 73 1001.4
20260505095502 61 144 2.0 8.0 0.01 0.00 0.03 75 1001.4
20260505094001 60 229 6.0 9.0 0.01 0.00 0.03 78 1001.4
20260505092502 59 220 5.0 8.0 0.00 0.00 0.02 81 1001.4
20260505091002 59 247 4.0 8.0 0.00 0.00 0.02 83 1001.4
20260505085502 56 200 3.0 6.0 0.00 0.00 0.02 90 1001.4
20260505083902 55 207 2.0 5.0 0.00 0.00 0.02 93 1001.4
20260505082402 55 168 3.0 5.0 0.00 0.00 0.02 95 1001.4
20260505080902 54 220 2.0 5.0 0.00 0.00 0.02 95 1001.7
20260505075502 54 203 1.0 6.0 0.00 0.00 0.02 95 1001.7
20260505074001 54 182 2.0 5.0 0.00 0.00 0.02 95 1002.0
20260505072502 53 248 5.0 5.0 0.00 0.00 0.02 94 1002.0
20260505071402 54 162 3.0 6.0 0.00 0.00 0.02 94 1002.4
20260505070002 54 172 4.0 6.0 0.00 0.00 0.02 94 1002.7
20260505064902 54 244 4.0 6.0 0.00 0.00 0.02 94 1002.7
20260505063503 54 153 3.0 9.0 0.02 0.00 0.02 94 1004.1
20260505062002 54 205 0.0 8.0 0.02 0.00 0.02 93 1003.7
20260505060502 54 194 4.0 8.0 0.02 0.00 0.02 92 1003.4
20260505055002 55 261 9.0 9.0 0.02 0.00 0.02 88 1004.1
20260505053502 58 216 14.0 17.0 0.00 0.00 0.00 78 1003.7
20260505052402 58 281 9.0 11.0 0.00 0.00 0.00 77 1003.4
20260505041503 63 218 9.0 10.0 0.00 0.00 0.00 71 1003.0
20260505040002 64 198 6.0 17.0 0.00 0.00 0.00 65 1003.0
20260505034502 63 230 6.0 10.0 0.00 0.00 0.00 68 1002.7
20260505033003 61 134 2.0 6.0 0.00 0.00 0.00 69 1002.7
20260505031502 60 263 2.0 4.0 0.00 0.00 0.00 68 1003.0
20260505030002 60 246 5.0 5.0 0.00 0.00 0.00 68 1003.4
20260505024502 60 246 4.0 5.0 0.00 0.00 0.00 68 1003.4
20260505023001 60 217 3.0 7.0 0.00 0.00 0.00 68 1003.4
20260505021902 60 229 8.0 9.0 0.00 0.00 0.00 68 1003.4
20260505020501 60 210 3.0 7.0 0.00 0.00 0.00 59 1003.7
20260505015402 59 202 1.0 2.0 0.00 0.00 0.00 56 1003.4
20260505013902 59 212 1.0 3.0 0.00 0.00 0.00 55 1003.4
20260505012502 59 223 0.0 6.0 0.00 0.00 0.00 55 1003.4
20260505011003 59 226 6.0 6.0 0.00 0.00 0.00 54 1003.4
20260505005902 60 242 2.0 6.0 0.00 0.00 0.00 54 1003.4
20260505004502 61 208 3.0 4.0 0.00 0.00 0.00 51 1003.4
20260505001502 66 191 1.0 4.0 0.00 0.00 0.00 40 1003.4
20260505000002 68 253 8.0 9.0 0.00 0.00 0.00 37 1003.4
20260504234502 68 283 4.0 7.0 0.00 0.00 0.00 36 1003.4
20260504233502 69 275 3.0 7.0 0.00 0.00 0.00 36 1003.4
20260504232003 69 231 8.0 10.0 0.00 0.00 0.00 36 1003.4
20260504230502 70 217 7.0 12.0 0.00 0.00 0.00 38 1003.7
20260504225002 70 305 4.0 13.0 0.00 0.00 0.00 40 1003.7
20260504224001 70 227 7.0 7.0 0.00 0.00 0.00 40 1003.7
20260504222502 71 256 2.0 9.0 0.00 0.00 0.00 39 1003.7
20260504221002 71 267 7.0 16.0 0.00 0.00 0.00 36 1003.4
20260504215502 73 287 6.0 11.0 0.00 0.00 0.00 32 1003.4
20260504214003 74 273 9.0 12.0 0.00 0.00 0.00 31 1003.4
20260504212502 74 235 9.0 11.0 0.00 0.00 0.00 31 1003.4
20260504211002 75 233 8.0 12.0 0.00 0.00 0.00 33 1003.7
20260504205502 73 305 9.0 13.0 0.00 0.00 0.00 35 1003.7
20260504204402 74 250 6.0 12.0 0.00 0.00 0.00 35 1004.1
20260504202902 74 297 3.0 13.0 0.00 0.00 0.00 38 1004.1
20260504201402 74 289 3.0 13.0 0.00 0.00 0.00 39 1004.1
20260504195902 74 275 3.0 8.0 0.00 0.00 0.00 37 1004.4
20260504194402 74 261 4.0 15.0 0.00 0.00 0.00 37 1004.4